{"data":{"norad_id":63017,"epoch":"2026-05-25T03:10:40.904832Z","epoch_age_seconds":66686,"freshness":"FRESH","line1":"1 63017U 25032N   26145.13241788  .00132248  00000+0  10169-2 0  9999","line2":"2 63017  42.9988  94.7986 0001073 218.6909 141.3881 15.70862538 74235","mean_motion":15.70862538,"eccentricity":0.0001073,"inclination_deg":42.9988,"raan_deg":94.7986,"arg_perigee_deg":218.6909,"mean_anomaly_deg":141.3881,"bstar":0.0010169,"rev_number":7423,"period_min":91.669383231545,"perigee_km":355.70802540845,"apogee_km":357.15326362496,"semimajor_km":6734.5676445167,"source":"CELESTRAK","updated_at":"2026-05-25T13:38:19.837567Z"}}